Date String (YYYY-MM-DD hh:mm:ss) UTC,Instrument flags,absolute air pressure of the measurement (hPa),sample flow rate (lpm),inlet stack bypass flow (lpm),air temperature of the measurement (°C),ambient temperature measured by the external sensor (°C),aerosol sample conditioner tube jacket temperature (°C),OPC LED temperature (°C),internal box temperature (°C),relative humidity of the measurement (%),span deviation,mass concentration of particles derived from Lorenz-Mie calculation of OPC scattering (μg/m³),mass concentration of particles derived from Lorenz-Mie calculation of OPC scattering (μg/m³),mass concentration of particles derived from Lorenz-Mie calculation of OPC scattering (μg/m³)
DateTimeUTC,F1_M11,P_M11,Q1_M11,Q2_M11,T1_M11,T2_M11,T3_M11,T4_M11,T5_M11,U1_M11,ZSPAN_M11,X2_M11,X0_M11,X1_M11
2023-10-03 08:00:00,SystemResetWarning,0827.0,4.99,000.00,028.4,027.3,000.0,036.8,030.2,29.8,0000.0,0003.78,0007.50,0003.13
2023-10-03 08:01:00,SystemResetWarning,0826.9,5.00,000.00,028.4,027.3,000.0,036.8,030.2,29.8,0000.0,0003.74,0007.57,0003.12
2023-10-03 08:02:00,SystemResetWarning,0827.0,5.00,000.00,028.4,027.3,000.0,036.8,030.2,29.8,0000.0,0003.73,0007.45,0003.12
2023-10-03 08:03:00,SystemResetWarning,0827.0,5.01,000.00,028.4,027.3,000.0,036.8,030.2,29.7,0000.0,0003.69,0007.19,0003.12
2023-10-03 08:04:00,SystemResetWarning,0827.0,5.00,000.00,028.4,027.3,000.0,036.8,030.2,29.7,0000.0,0003.66,0007.23,0003.11
2023-10-03 08:05:00,SystemResetWarning,0827.0,5.00,000.00,028.4,027.3,000.0,036.8,030.2,29.7,0000.0,0003.62,0007.09,0003.09
2023-10-03 08:06:00,SystemResetWarning,0827.0,5.00,000.00,028.5,027.3,000.0,036.8,030.2,29.6,0000.0,0003.65,0007.12,0003.09
2023-10-03 08:07:00,SystemResetWarning,0827.0,5.00,000.00,028.5,027.4,000.0,036.8,030.2,29.7,0000.0,0003.70,0007.31,0003.11
2023-10-03 08:08:00,SystemResetWarning,0826.9,5.00,000.00,028.5,027.4,000.0,036.9,030.2,29.7,0000.0,0003.72,0007.37,0003.13
2023-10-03 08:09:00,SystemResetWarning,0827.0,4.99,000.00,028.5,027.4,000.0,036.9,030.2,29.7,0000.0,0003.70,0007.33,0003.13
2023-10-03 08:10:00,SystemResetWarning,0826.9,4.99,000.00,028.5,027.4,000.0,036.9,030.2,29.7,0000.0,0003.73,0007.51,0003.13
2023-10-03 08:11:00,SystemResetWarning,0827.0,5.00,000.00,028.5,027.4,000.0,036.9,030.3,29.5,0000.0,0003.74,0007.53,0003.13
2023-10-03 08:12:00,SystemResetWarning,0826.9,5.01,000.00,028.5,027.4,000.0,036.9,030.3,29.5,0000.0,0003.76,0007.43,0003.14
2023-10-03 08:13:00,SystemResetWarning,0827.0,5.00,000.00,028.6,027.4,000.0,036.9,030.3,29.5,0000.0,0003.78,0007.56,0003.14
2023-10-03 08:14:00,SystemResetWarning,0826.9,5.01,000.00,028.6,027.5,000.0,036.9,030.3,29.5,0000.0,0003.81,0007.67,0003.16
2023-10-03 08:15:00,SystemResetWarning,0826.9,5.00,000.00,028.6,027.5,000.0,036.9,030.3,29.5,0000.0,0003.81,0007.54,0003.18
2023-10-03 08:16:00,SystemResetWarning,0827.0,5.00,000.00,028.6,027.5,000.0,037.0,030.4,29.5,0000.0,0003.84,0007.49,0003.19
2023-10-03 08:17:00,SystemResetWarning,0826.9,4.99,000.00,028.6,027.5,000.0,037.0,030.4,29.4,0000.0,0003.85,0007.45,0003.20
2023-10-03 08:18:00,SystemResetWarning,0826.9,5.00,000.00,028.6,027.5,000.0,037.0,030.4,29.4,0000.0,0003.84,0008.04,0003.20
2023-10-03 08:19:00,SystemResetWarning,0826.9,5.00,000.00,028.7,027.6,000.0,037.0,030.4,29.4,0000.0,0003.85,0008.28,0003.20
2023-10-03 08:20:00,SystemResetWarning,0826.9,5.00,000.00,028.7,027.6,000.0,037.0,030.4,29.4,0000.0,0003.87,0008.68,0003.21
2023-10-03 08:21:00,SystemResetWarning,0827.0,5.01,000.00,028.7,027.6,000.0,037.0,030.5,29.3,0000.0,0003.89,0008.68,0003.22
2023-10-03 08:22:00,SystemResetWarning,0827.0,5.00,000.00,028.7,027.6,000.0,037.1,030.5,29.2,0000.0,0003.88,0008.55,0003.22
2023-10-03 08:23:00,SystemResetWarning,0827.0,5.01,000.00,028.8,027.6,000.0,037.1,030.5,29.1,0000.0,0003.89,0008.76,0003.23
2023-10-03 08:24:00,SystemResetWarning,0827.0,4.99,000.00,028.8,027.7,000.0,037.1,030.6,29.1,0000.0,0003.86,0008.77,0003.23
2023-10-03 08:25:00,SystemResetWarning,0827.0,4.99,000.00,028.8,027.7,000.0,037.1,030.6,29.0,0000.0,0003.89,0008.79,0003.23
2023-10-03 08:26:00,SystemResetWarning,0826.9,4.99,000.00,028.8,027.7,000.0,037.2,030.6,28.9,0000.0,0003.90,0008.81,0003.24
2023-10-03 08:27:00,SystemResetWarning,0826.9,5.01,000.00,028.9,027.7,000.0,037.2,030.6,28.8,0000.0,0003.89,0008.81,0003.24
2023-10-03 08:28:00,SystemResetWarning,0826.9,5.01,000.00,028.9,027.7,000.0,037.2,030.6,28.7,0000.0,0003.87,0008.82,0003.23
2023-10-03 08:29:00,SystemResetWarning,0826.9,5.00,000.00,028.9,027.8,000.0,037.2,030.7,28.8,0000.0,0003.87,0008.42,0003.23
2023-10-03 08:30:00,SystemResetWarning,0826.9,5.00,000.00,028.9,027.8,000.0,037.2,030.7,28.7,0000.0,0003.82,0008.68,0003.22
2023-10-03 08:31:00,SystemResetWarning,0827.0,4.99,000.00,028.9,027.8,000.0,037.3,030.7,28.6,0000.0,0003.83,0008.51,0003.23
2023-10-03 08:32:00,SystemResetWarning,0827.0,5.00,000.00,029.0,027.8,000.0,037.3,030.7,28.6,0000.0,0003.82,0008.56,0003.23
2023-10-03 08:33:00,SystemResetWarning,0826.9,5.00,000.00,029.0,027.8,000.0,037.3,030.7,28.5,0000.0,0003.83,0008.56,0003.25
2023-10-03 08:34:00,SystemResetWarning,0826.9,5.01,000.00,029.0,027.9,000.0,037.3,030.8,28.5,0000.0,0003.84,0008.40,0003.26
2023-10-03 08:35:00,SystemResetWarning,0826.9,5.01,000.00,029.0,027.9,000.0,037.3,030.8,28.5,0000.0,0003.86,0008.25,0003.27
2023-10-03 08:36:00,SystemResetWarning,0826.9,5.00,000.00,029.0,027.9,000.0,037.4,030.8,28.5,0000.0,0003.87,0008.27,0003.28
2023-10-03 08:37:00,SystemResetWarning,0826.9,4.99,000.00,029.0,027.9,000.0,037.4,030.8,28.5,0000.0,0003.83,0008.18,0003.28
2023-10-03 08:38:00,SystemResetWarning,0826.9,5.00,000.00,029.1,027.9,000.0,037.4,030.8,28.3,0000.0,0003.85,0008.17,0003.30
2023-10-03 08:39:00,SystemResetWarning,0827.0,4.99,000.00,029.1,027.9,000.0,037.4,030.8,28.2,0000.0,0003.86,0008.14,0003.30
2023-10-03 08:40:00,SystemResetWarning,0826.9,5.00,000.00,029.1,027.9,000.0,037.4,030.8,27.7,0000.0,0003.86,0007.98,0003.31
2023-10-03 08:41:00,SystemResetWarning,0826.9,5.00,000.00,029.1,027.9,000.0,037.5,030.8,27.3,0000.0,0003.89,0007.37,0003.32
2023-10-03 08:42:00,SystemResetWarning,0826.9,5.00,000.00,029.1,028.0,000.0,037.5,030.9,27.2,0000.0,0003.88,0006.96,0003.33
2023-10-03 08:43:00,SystemResetWarning,0826.9,5.00,000.00,029.1,028.0,000.0,037.5,030.9,27.0,0000.0,0003.87,0006.97,0003.34
2023-10-03 08:44:00,SystemResetWarning,0826.9,5.00,000.00,029.2,028.0,000.0,037.5,030.9,26.8,0000.0,0003.88,0007.68,0003.35
2023-10-03 08:45:00,SystemResetWarning,0826.8,5.00,000.00,029.2,028.0,000.0,037.5,030.9,26.8,0000.0,0003.87,0007.64,0003.35
2023-10-03 08:46:00,SystemResetWarning,0826.8,5.00,000.00,029.2,028.0,000.0,037.5,030.9,26.9,0000.0,0003.89,0007.73,0003.36
2023-10-03 08:47:00,SystemResetWarning,0826.8,5.00,000.00,029.2,028.0,000.0,037.6,030.9,26.8,0000.0,0003.90,0007.92,0003.37
2023-10-03 08:48:00,SystemResetWarning,0826.8,4.99,000.00,029.2,026.7,000.0,037.5,030.8,26.8,0000.0,0003.91,0007.93,0003.37
2023-10-03 08:49:00,SystemResetWarning,0826.8,5.00,000.00,029.1,025.0,000.0,037.5,030.6,26.9,0000.0,0003.94,0008.22,0003.38
2023-10-03 08:50:00,SystemResetWarning,0826.8,5.00,000.00,029.0,024.5,000.0,037.4,030.4,26.9,0000.0,0003.98,0008.35,0003.38
2023-10-03 08:51:00,SystemResetWarning,0826.8,5.02,000.00,028.8,024.7,000.0,037.4,030.1,27.2,0000.0,0004.01,0008.38,0003.39
2023-10-03 08:52:00,SystemResetWarning,0826.8,5.00,000.00,028.7,025.1,000.0,037.4,030.1,27.5,0000.0,0004.05,0008.41,0003.40
2023-10-03 08:53:00,SystemResetWarning,0826.8,5.00,000.00,028.7,025.5,000.0,037.4,030.1,27.5,0000.0,0004.08,0008.50,0003.40
2023-10-03 08:54:00,SystemResetWarning,0826.8,5.00,000.00,028.7,025.8,000.0,037.3,030.2,27.4,0000.0,0004.10,0008.52,0003.40
2023-10-03 08:55:00,SystemResetWarning,0826.8,5.00,000.00,028.6,026.2,000.0,037.3,030.2,27.0,0000.0,0004.08,0007.84,0003.38
2023-10-03 08:56:00,SystemResetWarning,0826.8,5.00,000.00,028.6,026.4,000.0,037.3,030.2,27.0,0000.0,0004.07,0007.88,0003.37
2023-10-03 08:57:00,SystemResetWarning,0826.8,5.00,000.00,028.6,026.6,000.0,037.2,030.3,26.7,0000.0,0004.05,0007.83,0003.36
2023-10-03 08:58:00,SystemResetWarning,0826.7,5.00,000.00,028.6,026.8,000.0,037.2,030.3,26.7,0000.0,0004.00,0007.60,0003.34
2023-10-03 08:59:00,SystemResetWarning,0826.7,5.00,000.00,028.6,027.0,000.0,037.2,030.3,26.9,0000.0,0003.98,0007.51,0003.33
